DW8947 Weather Reports


time (UTC)temp
C
wind
direction
speed
KPH
gust
KPH
rain 1hr
cm
rain 24hr
cm
rain mn
cm
humidity
%
barometer
mb
20260831135704 12 87 0.0 3.2 0.00 0.00 0.00 94 1012.5
20260831135204 12 84 0.0 3.2 0.00 0.00 0.00 94 1012.4
20260831133704 12 84 0.0 3.2 0.00 0.00 0.00 94 1012.3
20260831133204 12 17 0.0 3.2 0.00 0.00 0.00 94 1012.3
20260831132704 12 17 0.0 3.2 0.00 0.00 0.00 94 1012.2
20260831131204 12 331 0.0 3.2 0.00 0.00 0.00 94 1012.2
20260831130704 12 352 0.0 3.2 0.00 0.00 0.00 94 1012.2
20260831125704 12 332 0.0 3.2 0.00 0.00 0.00 94 1012.4
20260831124204 12 341 0.0 3.2 0.00 0.00 0.00 94 1012.4
20260831123204 13 341 0.0 3.2 0.00 0.00 0.00 94 1012.6
20260831120704 13 11 0.0 3.2 0.00 0.00 0.00 93 1012.7
20260831120204 13 28 0.0 3.2 0.00 0.00 0.00 93 1012.7
20260831115204 13 2 1.6 3.2 0.00 0.00 0.00 93 1012.7
20260831114204 13 296 0.0 1.6 0.00 0.00 0.00 93 1012.9
20260831113703 13 276 0.0 3.2 0.00 0.00 0.00 93 1013.0
20260831113204 13 303 1.6 3.2 0.00 0.00 0.00 93 1013.0
20260831112704 13 303 0.0 1.6 0.00 0.00 0.00 93 1013.1
20260831112203 13 286 0.0 1.6 0.00 0.00 0.00 93 1013.2
20260831110703 13 84 1.6 3.2 0.00 0.00 0.00 93 1013.1
20260831105704 13 271 0.0 3.2 0.00 0.00 0.00 93 1013.1
20260831105204 13 123 0.0 1.6 0.00 0.00 0.00 92 1013.2
20260831104704 12 123 0.0 3.2 0.00 0.00 0.00 92 1013.2
20260831103204 13 71 0.0 1.6 0.00 0.00 0.00 92 1013.3
20260831101204 13 71 0.0 0.0 0.00 0.00 0.00 92 1013.5
20260831095703 13 22 0.0 0.0 0.00 0.00 0.00 91 1013.8
20260831085704 13 348 0.0 3.2 0.00 0.00 0.00 91 1014.2
20260831085204 13 348 0.0 3.2 0.00 0.00 0.00 90 1014.2
20260831084204 13 91 0.0 3.2 0.00 0.00 0.00 90 1014.2
20260831080704 13 133 0.0 3.2 0.00 0.00 0.00 90 1014.7
20260831080204 13 133 0.0 3.2 0.00 0.00 0.00 90 1014.7
20260831075704 13 140 0.0 3.2 0.00 0.00 0.00 89 1014.7
20260831075204 13 144 0.0 3.2 0.00 0.00 0.00 89 1014.7
20260831073704 13 39 0.0 3.2 0.00 0.00 0.00 88 1014.6
20260831073204 13 39 0.0 3.2 0.00 0.00 0.00 88 1014.7
20260831070204 14 34 0.0 3.2 0.00 0.00 0.00 87 1015.1
20260831064704 14 16 0.0 3.2 0.00 0.00 0.00 86 1015.3
20260831064204 14 16 0.0 3.2 0.00 0.00 0.00 85 1015.3
20260831063204 14 20 0.0 3.2 0.00 0.00 0.00 84 1015.3
20260831062704 15 20 0.0 3.2 0.00 0.00 0.00 84 1015.4
20260831062204 15 66 0.0 3.2 0.00 0.00 0.00 85 1015.5
20260831060704 15 110 0.0 3.2 0.00 0.00 0.00 84 1015.5
20260831055204 15 72 0.0 3.2 0.00 0.00 0.00 82 1015.7
20260831054704 15 72 0.0 3.2 0.00 0.00 0.00 83 1015.7
20260831053704 15 72 0.0 1.6 0.00 0.00 0.00 82 1015.8
20260831053204 15 177 0.0 3.2 0.00 0.00 0.00 81 1015.9
20260831051704 15 214 0.0 3.2 0.00 0.00 0.00 79 1016.1
20260831050704 15 88 0.0 3.2 0.00 0.00 0.00 80 1016.1
20260831045704 15 96 0.0 3.2 0.00 0.00 0.00 78 1016.2
20260831043704 15 70 0.0 3.2 0.00 0.00 0.00 77 1016.3
20260831042204 15 113 0.0 3.2 0.00 0.00 0.00 76 1016.2
20260831040704 16 114 0.0 3.2 0.00 0.00 0.00 75 1016.2
20260831035204 16 119 0.0 3.2 0.00 0.00 0.00 75 1016.2
20260831034204 16 26 0.0 3.2 0.00 0.00 0.00 75 1016.2
20260831033704 16 58 0.0 3.2 0.00 0.00 0.00 76 1016.2
20260831032203 16 48 0.0 3.2 0.00 0.00 0.00 74 1016.2
20260831031704 16 48 0.0 3.2 0.00 0.00 0.00 75 1016.2
20260831030703 17 16 1.6 4.8 0.00 0.00 0.00 72 1016.2
20260831030204 17 48 0.0 3.2 0.00 0.00 0.00 74 1016.2
20260831025704 17 48 0.0 3.2 0.00 0.00 0.00 74 1016.2
20260831025204 17 102 0.0 3.2 0.00 0.00 0.00 74 1016.2
20260831024704 17 137 0.0 3.2 0.00 0.00 0.00 73 1016.3
20260831023704 17 179 0.0 3.2 0.00 0.00 0.00 70 1016.3
20260831023204 17 179 0.0 3.2 0.00 0.00 0.00 70 1016.3
20260831022704 17 179 0.0 3.2 0.00 0.00 0.00 70 1016.3
20260831022203 18 179 0.0 3.2 0.00 0.00 0.00 70 1016.3
20260831020704 18 179 0.0 3.2 0.00 0.00 0.00 70 1016.4
20260831015704 18 185 0.0 3.2 0.00 0.00 0.00 68 1016.4
20260831015204 18 185 0.0 1.6 0.00 0.00 0.00 67 1016.4
20260831014704 19 185 0.0 3.2 0.00 0.00 0.00 66 1016.5
20260831014204 19 185 0.0 0.0 0.00 0.00 0.00 66 1016.4
20260831013703 19 185 0.0 3.2 0.00 0.00 0.00 64 1016.5
20260831013204 19 185 0.0 3.2 0.00 0.00 0.00 64 1016.5
20260831012703 20 185 0.0 0.0 0.00 0.00 0.00 64 1016.6
20260831010704 20 208 0.0 1.6 0.00 0.00 0.00 61 1016.7
20260831005703 20 208 0.0 3.2 0.00 0.00 0.00 59 1016.8
20260831005204 20 178 0.0 3.2 0.00 0.00 0.00 62 1016.8
20260831004704 20 221 0.0 3.2 0.00 0.00 0.00 59 1016.7
20260831002703 20 136 0.0 3.2 0.00 0.00 0.00 57 1016.9
20260831002204 20 211 0.0 3.2 0.00 0.00 0.00 56 1016.9
20260831001203 20 295 0.0 3.2 0.00 0.00 0.00 59 1016.9
20260831000705 20 68 0.0 3.2 0.00 0.00 0.00 60 1016.9
20260830234703 20 13 1.6 3.2 0.00 0.00 0.00 56 1017.0
20260830234207 20 14 0.0 3.2 0.00 0.00 0.00 57 1017.0
20260830233707 20 134 1.6 3.2 0.00 0.00 0.00 63 1017.1
20260830232206 20 69 0.0 3.2 0.00 0.00 0.00 62 1017.2
20260830231706 20 69 0.0 3.2 0.00 0.00 0.00 61 1017.2
20260830230706 20 83 1.6 4.8 0.00 0.00 0.00 60 1017.3
20260830225707 20 145 0.0 3.2 0.00 0.00 0.00 62 1017.3
20260830225206 20 98 0.0 3.2 0.00 0.00 0.00 62 1017.2
20260830224706 20 16 0.0 3.2 0.00 0.00 0.00 56 1017.2
20260830222206 20 246 0.0 3.2 0.00 0.00 0.00 59 1017.6
20260830221706 20 246 0.0 3.2 0.00 0.00 0.00 56 1017.8
20260830221206 20 246 0.0 1.6 0.00 0.00 0.00 61 1017.8
20260830215706 20 194 0.0 3.2 0.00 0.00 0.00 60 1017.9
20260830212706 19 183 0.0 3.2 0.00 0.00 0.00 63 1018.1
20260830211206 19 173 0.0 3.2 0.00 0.00 0.00 62 1018.2
20260830210206 20 275 1.6 3.2 0.00 0.00 0.00 62 1018.3
20260830205207 19 275 1.6 1.6 0.00 0.00 0.00 62 1018.2
20260830204706 20 284 1.6 3.2 0.00 0.00 0.00 64 1018.2
20260830204206 20 71 0.0 3.2 0.00 0.00 0.00 61 1018.2
20260830203706 20 152 1.6 3.2 0.00 0.00 0.00 62 1018.3
20260830203207 20 152 0.0 3.2 0.00 0.00 0.00 62 1018.3
20260830202207 19 184 0.0 3.2 0.00 0.00 0.00 65 1018.5
20260830201206 18 246 0.0 3.2 0.00 0.00 0.00 65 1018.6
20260830200706 18 246 1.6 3.2 0.00 0.00 0.00 65 1018.6
20260830194709 19 159 1.6 3.2 0.00 0.00 0.00 66 1018.7
20260830194205 19 140 1.6 1.6 0.00 0.00 0.00 64 1018.7
20260830191205 17 164 0.0 1.6 0.00 0.00 0.00 70 1018.9
20260830185204 17 204 0.0 1.6 0.00 0.00 0.00 73 1019.0
20260830184705 17 225 1.6 3.2 0.00 0.00 0.00 75 1019.1
20260830184205 16 279 1.6 1.6 0.00 0.00 0.00 74 1019.1
20260830183705 16 277 1.6 3.2 0.00 0.00 0.00 74 1019.0
20260830182705 16 281 1.6 3.2 0.00 0.00 0.00 76 1019.1
20260830181204 16 273 1.6 3.2 0.00 0.00 0.00 81 1018.9
20260830180704 16 248 0.0 3.2 0.00 0.00 0.00 82 1018.8
20260830175705 16 214 0.0 3.2 0.00 0.00 0.00 82 1018.9
20260830174205 15 84 0.0 1.6 0.00 0.00 0.00 84 1018.8
20260830173705 15 24 1.6 3.2 0.00 0.00 0.00 82 1018.8
20260830173205 15 244 0.0 3.2 0.00 0.00 0.00 82 1018.9
20260830172205 15 295 0.0 3.2 0.00 0.00 0.00 82 1019.0
20260830171205 15 204 0.0 3.2 0.00 0.00 0.00 83 1019.0
20260830164705 15 172 0.0 3.2 0.00 0.00 0.00 85 1018.8
20260830163205 14 172 0.0 3.2 0.00 0.00 0.00 85 1018.9
20260830162705 14 172 0.0 3.2 0.00 0.00 0.00 86 1018.9
20260830162204 14 172 0.0 1.6 0.00 0.00 0.00 86 1018.9
20260830161705 14 172 0.0 3.2 0.00 0.00 0.00 86 1018.9
20260830160204 14 293 0.0 3.2 0.00 0.00 0.00 87 1019.0
20260830155204 13 306 0.0 3.2 0.00 0.00 0.00 87 1018.9
20260830154205 13 306 0.0 3.2 0.00 0.00 0.00 88 1018.9
20260830153205 13 306 0.0 3.2 0.00 0.00 0.00 88 1018.8
20260830152205 13 306 0.0 3.2 0.00 0.00 0.00 90 1018.7
20260830151204 13 306 0.0 0.0 0.00 0.00 0.00 91 1018.8
20260830150204 13 306 0.0 0.0 0.00 0.00 0.00 92 1018.9
20260830145204 13 306 0.0 0.0 0.00 0.00 0.00 93 1018.8
20260830144705 12 306 0.0 0.0 0.00 0.00 0.00 93 1018.9
20260830144205 12 306 0.0 0.0 0.00 0.00 0.00 93 1018.8
20260830143704 12 306 0.0 0.0 0.00 0.00 0.00 93 1018.7
20260830142204 12 306 0.0 0.0 0.00 0.00 0.00 93 1018.6
20260830141205 12 306 0.0 0.0 0.00 0.00 0.00 92 1018.5